LiveATC.Net - Listen to live air traffic control over the Internet!


ICAO: KOXC  IATA: OXC   Airport: Waterbury-Oxford Airport
City: Oxford   State/Province: Connecticut
Country: United States   Continent: North America
KOXC METAR Weather: KOXC 220655Z AUTO 00000KT 1/2SM BKN002 05/03 A2976 RMK AO1
KOXC Flight Activity (FlightAware)
KOXC Airport Info   (AirNav) (iFlightPlanner)
KOXC VFR Sectional Chart   (iFlightPlanner) 
KOXC IFR Low Chart   (iFlightPlanner) 
KOXC Ground/Tower
Feed Status: DOWN
Last heard on: 2017-01-21 01:31:06 (1 days 6 hours 57 minutes ago)
KOXC Ground/Tower Audio Archives
FacilityFrequency
Oxford Ground121.650
Oxford Tower118.475


NOTICE

Unauthorized use prohibited. See LiveATC.net Terms of Service


Find LiveATC Audio Streams


Airport/ARTCC Code

Frequency Search
(e.g., 124.400, 128.75)
Site-wide search
 


Browse LiveATC Feeds
LiveATC Coverage Map
Top 50 LiveATC Feeds
Bad Weather Areas

LiveATC FAQ
Offer a LiveATC Feed
Contact LiveATC.net
Press Inquiries

LiveATC on iPhone
LiveATC on Android

Windows Phone
Windows 8/10

LiveATC Mobile
(Mobile browser)

ATC Audio Archives
Interesting Recordings

LiveATC Forums


Home Page
About LiveATC.net
Make a Donation
LiveATC Store

Terms of Use
Privacy Policy

Canadian Air Freqs

AIRMETs/SIGMETs

FAA Airport Status
Nat'l Airspace Status
Arrival Demand Charts


Server Software By:
Icecast.org
Liquidsoap